This demonstration page uses our WeatherBlox Daily Observations layout. Learn more.

Left ArrowRight Arrow

39.08367, -84.50855

Hourly Observations for January 21, 2015

Temp ( °F °C ) Dew Point ( °F °C ) Humidity (%) Winds ( mph kmh ) Pressure ( in mb ) Visibility ( mi km ) Precip ( " mm )
12:53 am 00:53 Partly Cloudy 33 0.6 30 -1.1 89 89 Calm 29.98 1015 10 16.0934 0 0
1:53 am 01:53 Mostly Cloudy 40 4.4 34 1.1 79 79 W 9 15 29.99 1016 9 14.48406 0 0
2:53 am 02:53 Cloudy 40 4.4 35 1.7 83 83 undefined N/A 30 1016 9 14.48406 0 0
4:53 am 04:53 Cloudy 40 4.4 35 1.7 83 83 W 12 19 30.01 1016 8 12.87472 0 0
5:06 am 05:06 Cloudy 39 4 36 2 87 87 W 10 17 30 1016 7 11.26538 0 0
5:21 am 05:21 Cloudy 39 3.9 35 1.7 86 86 W 13 20 30 1016 7 11.26538 0 0
5:35 am 05:35 Cloudy 39 3.9 35 1.7 86 86 W 9 15 30.03 1017 7 11.26538 0 0
5:53 am 05:53 Cloudy 39 3.9 35 1.7 86 86 W 7 11 30.02 1017 7 11.26538 0 0
6:18 am 06:18 Cloudy 37 3 34 1 87 87 W 12 19 30.03 1017 8 12.87472 0 0
6:53 am 06:53 Cloudy 37 2.8 32 0 82 82 W 8 13 30.05 1018 9 14.48406 0 0
7:53 am 07:53 Cloudy 37 2.8 32 0 82 82 WSW 8 13 30.06 1018 8 12.87472 0 0
8:26 am 08:26 Partly Cloudy with Mist and Fog 36 2 30 -1 81 81 SW 7 11 30.06 1018 6 9.65604 0 0
8:53 am 08:53 Mostly Cloudy with Haze 37 2.8 32 0 82 82 SW 5 7 30.09 1019 6 9.65604 0 0
9:34 am 09:34 Mostly Cloudy with Haze 37 3 34 1 87 87 W 5 7 30.09 1019 6 9.65604 0 0
9:53 am 09:53 Cloudy 39 3.9 33 0.6 79 79 WSW 10 17 30.1 1019 7 11.26538 0 0
10:53 am 10:53 Cloudy 42 5.6 34 1.1 73 73 SW 8 13 30.11 1020 8 12.87472 0 0
11:51 am 11:51 Mostly Sunny 45 7 34 1 66 66 SSW 13 20 30.09 1019 10 16.0934 0 0
11:53 am 11:53 Partly Cloudy 45 7.2 34 1.1 66 66 SSW 14 22 30.09 1019 10 16.0934 0 0
12:53 pm 12:53 Partly Cloudy 48 8.9 34 1.1 58 58 SW 10 17 30.07 1018 10 16.0934 0 0
1:53 pm 13:53 Partly Cloudy 50 10 32 0 50 50 SW 13 20 30.04 1017 10 16.0934 0 0
2:53 pm 14:53 Cloudy 49 9.4 29 -1.7 46 46 SW 13 20 30.04 1017 10 16.0934 0 0
3:53 pm 15:53 Cloudy 49 9.4 27 -2.8 43 43 WSW 14 22 30.05 1018 10 16.0934 0 0
4:53 pm 16:53 Cloudy 48 8.9 28 -2.2 46 46 W 14 22 30.07 1018 10 16.0934 0 0
5:53 pm 17:53 Cloudy 46 7.8 29 -1.7 51 51 W 13 20 30.09 1019 10 16.0934 0 0
6:53 pm 18:53 Mostly Clear 42 5.6 29 -1.7 60 60 WNW 9 15 30.14 1021 10 16.0934 0 0
7:53 pm 19:53 Clear 38 3.3 28 -2.2 68 68 NW 10 17 30.19 1022 10 16.0934 0 0
8:53 pm 20:53 Clear 36 2.2 27 -2.8 70 70 WNW 5 7 30.2 1023 10 16.0934 0 0
9:53 pm 21:53 Cloudy 36 2.2 26 -3.3 67 67 W 15 24 30.22 1023 10 16.0934 0 0
10:53 pm 22:53 Cloudy 37 2.8 27 -2.8 67 67 W 10 17 30.23 1024 10 16.0934 0 0
11:53 pm 23:53 Cloudy 37 2.8 28 -2.2 70 70 W 8 13 30.24 1024 10 16.0934 0 0

Powered by AerisWeather